Location: *
(46.4000°N, 12.6667°E)
Time: 23:19:47
(UTC+00:00)

RESURS DK-1 - Pass Details

Date: 09 April 2020
Orbit: 556 x 561 km, 69.9° (Epoch: 22 May)

Event Time Altitude Azimuth Distance (km) Brightness Sun altitude
Rises 20:44:59 0° 329° (NNW) 2,761 7.2 -26.7°
Reaches altitude 10° 20:47:12 10° 326° (NW) 1,859 6.0 -26.9°
Enters shadow 20:50:17 45° 303° (WNW) 770 3.3 -27.3°
